Year,Month,Day,Hour,Minute,Value (Times are PST for windgust in km/hr)
2010,07,16,00,00,4.80
2010,07,16,00,01,3.20
2010,07,16,00,02,3.20
2010,07,16,00,03,6.40
2010,07,16,00,04,4.80
2010,07,16,00,05,3.20
2010,07,16,00,06,4.80
2010,07,16,00,07,4.80
2010,07,16,00,08,6.40
2010,07,16,00,09,6.40
2010,07,16,00,10,6.40
2010,07,16,00,11,3.20
2010,07,16,00,12,4.80
2010,07,16,00,13,4.80
2010,07,16,00,14,6.40
2010,07,16,00,15,4.80
2010,07,16,00,16,4.80
2010,07,16,00,17,4.80
2010,07,16,00,18,6.40
2010,07,16,00,19,6.40
2010,07,16,00,20,8.10
2010,07,16,00,21,8.10
2010,07,16,00,22,8.10
2010,07,16,00,23,8.10
2010,07,16,00,24,11.30
2010,07,16,00,25,9.60
2010,07,16,00,26,8.10
2010,07,16,00,27,11.30
2010,07,16,00,28,9.60
2010,07,16,00,29,6.40
2010,07,16,00,30,11.30
2010,07,16,00,31,9.60
2010,07,16,00,32,8.10
2010,07,16,00,33,8.10
2010,07,16,00,34,11.30
2010,07,16,00,35,8.10
2010,07,16,00,36,8.10
2010,07,16,00,37,6.40
2010,07,16,00,38,8.10
2010,07,16,00,39,8.10
2010,07,16,00,40,8.10
2010,07,16,00,41,6.40
2010,07,16,00,42,4.80
2010,07,16,00,43,4.80
2010,07,16,00,44,4.80
2010,07,16,00,45,3.20
2010,07,16,00,46,6.40
2010,07,16,00,47,4.80
2010,07,16,00,48,4.80
2010,07,16,00,49,4.80
2010,07,16,00,51,4.80
2010,07,16,00,52,3.20
2010,07,16,00,53,6.40
2010,07,16,00,54,3.20
2010,07,16,00,55,3.20
2010,07,16,00,56,1.60
2010,07,16,00,58,3.20
2010,07,16,00,59,3.20
2010,07,16,01,01,4.80
2010,07,16,01,06,4.80
2010,07,16,01,07,3.20
2010,07,16,01,08,4.80
2010,07,16,01,09,4.80
2010,07,16,01,10,6.40
2010,07,16,01,11,6.40
2010,07,16,01,12,4.80
2010,07,16,01,13,6.40
2010,07,16,01,14,6.40
2010,07,16,01,15,6.40
2010,07,16,01,16,4.80
2010,07,16,01,17,6.40
2010,07,16,01,18,4.80
2010,07,16,01,19,4.80
2010,07,16,01,20,4.80
2010,07,16,01,21,3.20
2010,07,16,01,22,4.80
2010,07,16,01,23,4.80
2010,07,16,01,24,4.80
2010,07,16,01,25,4.80
2010,07,16,01,26,6.40
2010,07,16,01,27,4.80
2010,07,16,01,28,3.20
2010,07,16,01,29,4.80
2010,07,16,01,30,4.80
2010,07,16,01,31,6.40
2010,07,16,01,32,6.40
2010,07,16,01,33,6.40
2010,07,16,01,34,6.40
2010,07,16,01,35,6.40
2010,07,16,01,36,8.10
2010,07,16,01,37,6.40
2010,07,16,01,38,6.40
2010,07,16,01,39,6.40
2010,07,16,01,40,6.40
2010,07,16,01,41,8.10
2010,07,16,01,42,6.40
2010,07,16,01,43,4.80
2010,07,16,01,44,3.20
2010,07,16,01,45,1.60
2010,07,16,01,46,4.80
2010,07,16,01,47,4.80
2010,07,16,01,48,6.40
2010,07,16,01,49,6.40
2010,07,16,01,50,6.40
2010,07,16,01,51,3.20
2010,07,16,01,52,6.40
2010,07,16,01,53,4.80
2010,07,16,01,54,4.80
2010,07,16,01,55,6.40
2010,07,16,01,56,6.40
2010,07,16,01,57,4.80
2010,07,16,01,58,4.80
2010,07,16,01,59,4.80
2010,07,16,02,00,3.20
2010,07,16,02,01,1.60
2010,07,16,02,02,3.20
2010,07,16,02,03,3.20
2010,07,16,02,04,1.60
2010,07,16,02,05,1.60
2010,07,16,02,06,1.60
2010,07,16,02,07,1.60
2010,07,16,02,08,1.60
2010,07,16,02,10,1.60
2010,07,16,02,19,3.20
2010,07,16,02,20,1.60
2010,07,16,02,21,1.60
2010,07,16,02,23,1.60
2010,07,16,02,24,3.20
2010,07,16,02,25,3.20
2010,07,16,02,26,3.20
2010,07,16,02,27,3.20
2010,07,16,02,28,3.20
2010,07,16,02,29,3.20
2010,07,16,02,30,3.20
2010,07,16,02,31,3.20
2010,07,16,02,32,3.20
2010,07,16,02,33,1.60
2010,07,16,02,34,1.60
2010,07,16,02,39,1.60
2010,07,16,02,40,4.80
2010,07,16,02,41,3.20
2010,07,16,02,42,3.20
2010,07,16,02,43,3.20
2010,07,16,02,44,3.20
2010,07,16,02,45,3.20
2010,07,16,02,47,4.80
2010,07,16,02,48,3.20
2010,07,16,02,49,4.80
2010,07,16,02,50,3.20
2010,07,16,02,51,8.10
2010,07,16,02,52,6.40
2010,07,16,02,53,6.40
2010,07,16,02,54,9.60
2010,07,16,02,55,8.10
2010,07,16,02,56,8.10
2010,07,16,02,57,11.30
2010,07,16,02,58,8.10
2010,07,16,02,59,8.10
2010,07,16,03,00,9.60
2010,07,16,03,01,8.10
2010,07,16,03,02,4.80
2010,07,16,03,03,6.40
2010,07,16,03,04,8.10
2010,07,16,03,05,9.60
2010,07,16,03,06,8.10
2010,07,16,03,07,6.40
2010,07,16,03,08,4.80
2010,07,16,03,09,8.10
2010,07,16,03,10,6.40
2010,07,16,03,11,8.10
2010,07,16,03,12,8.10
2010,07,16,03,13,11.30
2010,07,16,03,14,12.90
2010,07,16,03,15,8.10
2010,07,16,03,16,6.40
2010,07,16,03,17,6.40
2010,07,16,03,18,3.20
2010,07,16,03,19,8.10
2010,07,16,03,20,8.10
2010,07,16,03,21,4.80
2010,07,16,03,22,6.40
2010,07,16,03,23,8.10
2010,07,16,03,24,6.40
2010,07,16,03,25,8.10
2010,07,16,03,26,8.10
2010,07,16,03,27,8.10
2010,07,16,03,28,8.10
2010,07,16,03,29,9.60
2010,07,16,03,30,9.60
2010,07,16,03,31,11.30
2010,07,16,03,32,11.30
2010,07,16,03,33,11.30
2010,07,16,03,34,11.30
2010,07,16,03,35,9.60
2010,07,16,03,36,11.30
2010,07,16,03,37,9.60
2010,07,16,03,38,8.10
2010,07,16,03,39,6.40
2010,07,16,03,40,6.40
2010,07,16,03,41,8.10
2010,07,16,03,42,9.60
2010,07,16,03,43,8.10
2010,07,16,03,44,11.30
2010,07,16,03,45,14.50
2010,07,16,03,46,9.60
2010,07,16,03,47,11.30
2010,07,16,03,48,14.50
2010,07,16,03,49,11.30
2010,07,16,03,50,8.10
2010,07,16,03,51,11.30
2010,07,16,03,52,6.40
2010,07,16,03,53,12.90
2010,07,16,03,54,9.60
2010,07,16,03,55,8.10
2010,07,16,03,56,9.60
2010,07,16,03,57,8.10
2010,07,16,03,58,8.10
2010,07,16,03,59,8.10
2010,07,16,04,00,9.60
2010,07,16,04,01,11.30
2010,07,16,04,02,6.40
2010,07,16,04,03,9.60
2010,07,16,04,04,6.40
2010,07,16,04,05,6.40
2010,07,16,04,06,6.40
2010,07,16,04,07,6.40
2010,07,16,04,08,9.60
2010,07,16,04,09,8.10
2010,07,16,04,10,9.60
2010,07,16,04,11,9.60
2010,07,16,04,12,4.80
2010,07,16,04,13,8.10
2010,07,16,04,14,9.60
2010,07,16,04,15,8.10
2010,07,16,04,16,8.10
2010,07,16,04,17,8.10
2010,07,16,04,18,6.40
2010,07,16,04,19,6.40
2010,07,16,04,20,6.40
2010,07,16,04,21,6.40
2010,07,16,04,22,4.80
2010,07,16,04,23,9.60
2010,07,16,04,24,11.30
2010,07,16,04,25,14.50
2010,07,16,04,26,8.10
2010,07,16,04,27,8.10
2010,07,16,04,28,9.60
2010,07,16,04,29,9.60
2010,07,16,04,30,11.30
2010,07,16,04,31,11.30
2010,07,16,04,32,12.90
2010,07,16,04,33,16.10
2010,07,16,04,34,14.50
2010,07,16,04,35,11.30
2010,07,16,04,36,9.60
2010,07,16,04,37,9.60
2010,07,16,04,38,9.60
2010,07,16,04,39,8.10
2010,07,16,04,40,14.50
2010,07,16,04,41,9.60
2010,07,16,04,42,16.10
2010,07,16,04,43,11.30
2010,07,16,04,44,9.60
2010,07,16,04,45,8.10
2010,07,16,04,46,8.10
2010,07,16,04,47,8.10
2010,07,16,04,48,8.10
2010,07,16,04,49,8.10
2010,07,16,04,50,4.80
2010,07,16,04,51,6.40
2010,07,16,04,52,4.80
2010,07,16,04,53,6.40
2010,07,16,04,54,6.40
2010,07,16,04,55,6.40
2010,07,16,04,56,4.80
2010,07,16,04,57,4.80
2010,07,16,04,58,4.80
2010,07,16,04,59,3.20
2010,07,16,05,00,1.60
2010,07,16,05,01,1.60
2010,07,16,05,02,3.20
2010,07,16,05,03,3.20
2010,07,16,05,04,4.80
2010,07,16,05,05,3.20
2010,07,16,05,06,4.80
2010,07,16,05,07,4.80
2010,07,16,05,08,3.20
2010,07,16,05,09,1.60
2010,07,16,05,16,1.60
2010,07,16,05,26,1.60
2010,07,16,05,27,3.20
2010,07,16,05,28,3.20
2010,07,16,05,29,1.60
2010,07,16,05,30,3.20
2010,07,16,05,31,1.60
2010,07,16,05,32,1.60
2010,07,16,05,33,1.60
2010,07,16,05,41,3.20
2010,07,16,05,42,1.60
2010,07,16,05,43,3.20
2010,07,16,05,44,1.60
2010,07,16,06,30,3.20
2010,07,16,06,31,3.20
2010,07,16,06,32,3.20
2010,07,16,06,33,1.60
2010,07,16,06,37,1.60
2010,07,16,06,39,1.60
2010,07,16,06,41,1.60
2010,07,16,06,47,3.20
2010,07,16,06,48,3.20
2010,07,16,06,49,1.60
2010,07,16,06,50,1.60
2010,07,16,06,51,1.60
2010,07,16,06,52,1.60
2010,07,16,06,53,3.20
2010,07,16,06,54,3.20
2010,07,16,06,55,3.20
2010,07,16,06,56,4.80
2010,07,16,06,57,4.80
2010,07,16,06,58,3.20
2010,07,16,06,59,3.20
2010,07,16,07,00,3.20
2010,07,16,07,01,3.20
2010,07,16,07,02,1.60
2010,07,16,07,04,1.60
2010,07,16,07,09,3.20
2010,07,16,07,10,4.80
2010,07,16,07,11,3.20
2010,07,16,07,12,1.60
2010,07,16,07,13,3.20
2010,07,16,07,14,3.20
2010,07,16,07,15,4.80
2010,07,16,07,16,6.40
2010,07,16,07,17,8.10
2010,07,16,07,18,8.10
2010,07,16,07,19,8.10
2010,07,16,07,20,4.80
2010,07,16,07,21,6.40
2010,07,16,07,22,4.80
2010,07,16,07,23,6.40
2010,07,16,07,24,4.80
2010,07,16,07,25,6.40
2010,07,16,07,26,8.10
2010,07,16,07,27,1.60
2010,07,16,07,28,1.60
2010,07,16,07,29,4.80
2010,07,16,07,30,6.40
2010,07,16,07,31,6.40
2010,07,16,07,32,6.40
2010,07,16,07,33,11.30
2010,07,16,07,34,6.40
2010,07,16,07,35,8.10
2010,07,16,07,36,6.40
2010,07,16,07,37,11.30
2010,07,16,07,38,9.60
2010,07,16,07,39,8.10
2010,07,16,07,40,9.60
2010,07,16,07,41,9.60
2010,07,16,07,42,8.10
2010,07,16,07,43,3.20
2010,07,16,07,44,9.60
2010,07,16,07,45,8.10
2010,07,16,07,46,8.10
2010,07,16,07,47,8.10
2010,07,16,07,48,11.30
2010,07,16,07,49,8.10
2010,07,16,07,50,8.10
2010,07,16,07,51,9.60
2010,07,16,07,52,6.40
2010,07,16,07,53,6.40
2010,07,16,07,54,4.80
2010,07,16,07,55,4.80
2010,07,16,07,56,6.40
2010,07,16,07,57,14.50
2010,07,16,07,58,9.60
2010,07,16,07,59,14.50
2010,07,16,08,00,14.50
2010,07,16,08,01,14.50
2010,07,16,08,02,14.50
2010,07,16,08,03,9.60
2010,07,16,08,04,16.10
2010,07,16,08,05,11.30
2010,07,16,08,06,11.30
2010,07,16,08,07,6.40
2010,07,16,08,08,6.40
2010,07,16,08,09,6.40
2010,07,16,08,10,9.60
2010,07,16,08,11,9.60
2010,07,16,08,12,6.40
2010,07,16,08,13,6.40
2010,07,16,08,14,6.40
2010,07,16,08,15,1.60
2010,07,16,08,16,1.60
2010,07,16,08,17,6.40
2010,07,16,08,18,8.10
2010,07,16,08,19,9.60
2010,07,16,08,20,11.30
2010,07,16,08,21,16.10
2010,07,16,08,22,9.60
2010,07,16,08,23,6.40
2010,07,16,08,24,8.10
2010,07,16,08,25,4.80
2010,07,16,08,26,8.10
2010,07,16,08,27,8.10
2010,07,16,08,28,6.40
2010,07,16,08,29,11.30
2010,07,16,08,30,11.30
2010,07,16,08,31,6.40
2010,07,16,08,32,6.40
2010,07,16,08,33,9.60
2010,07,16,08,34,4.80
2010,07,16,08,35,8.10
2010,07,16,08,36,8.10
2010,07,16,08,37,4.80
2010,07,16,08,38,9.60
2010,07,16,08,39,8.10
2010,07,16,08,40,4.80
2010,07,16,08,41,11.30
2010,07,16,08,42,9.60
2010,07,16,08,43,9.60
2010,07,16,08,44,8.10
2010,07,16,08,45,9.60
2010,07,16,08,46,11.30
2010,07,16,08,47,8.10
2010,07,16,08,48,16.10
2010,07,16,08,49,17.70
2010,07,16,08,50,16.10
2010,07,16,08,51,16.10
2010,07,16,08,52,16.10
2010,07,16,08,53,8.10
2010,07,16,08,54,17.70
2010,07,16,08,55,17.70
2010,07,16,08,56,12.90
2010,07,16,08,57,14.50
2010,07,16,08,58,9.60
2010,07,16,08,59,11.30
2010,07,16,09,00,11.30
2010,07,16,09,01,9.60
2010,07,16,09,02,9.60
2010,07,16,09,03,16.10
2010,07,16,09,04,16.10
2010,07,16,09,05,17.70
2010,07,16,09,06,20.90
2010,07,16,09,07,19.30
2010,07,16,09,08,16.10
2010,07,16,09,09,8.10
2010,07,16,09,10,16.10
2010,07,16,09,11,11.30
2010,07,16,09,12,8.10
2010,07,16,09,13,11.30
2010,07,16,09,14,17.70
2010,07,16,09,15,20.90
2010,07,16,09,16,17.70
2010,07,16,09,17,16.10
2010,07,16,09,18,14.50
2010,07,16,09,19,16.10
2010,07,16,09,20,16.10
2010,07,16,09,21,12.90
2010,07,16,09,22,16.10
2010,07,16,09,23,16.10
2010,07,16,09,24,16.10
2010,07,16,09,25,19.30
2010,07,16,09,26,11.30
2010,07,16,09,27,17.70
2010,07,16,09,28,14.50
2010,07,16,09,29,9.60
2010,07,16,09,30,6.40
2010,07,16,09,31,17.70
2010,07,16,09,32,16.10
2010,07,16,09,33,16.10
2010,07,16,09,34,12.90
2010,07,16,09,35,17.70
2010,07,16,09,36,17.70
2010,07,16,09,37,17.70
2010,07,16,09,38,12.90
2010,07,16,09,39,14.50
2010,07,16,09,40,12.90
2010,07,16,09,41,8.10
2010,07,16,09,42,9.60
2010,07,16,09,43,11.30
2010,07,16,09,44,17.70
2010,07,16,09,45,16.10
2010,07,16,09,46,17.70
2010,07,16,09,47,16.10
2010,07,16,09,48,17.70
2010,07,16,09,49,19.30
2010,07,16,09,50,19.30
2010,07,16,09,51,17.70
2010,07,16,09,52,11.30
2010,07,16,09,53,17.70
2010,07,16,09,54,17.70
2010,07,16,09,55,16.10
2010,07,16,09,56,8.10
2010,07,16,09,57,17.70
2010,07,16,09,58,17.70
2010,07,16,09,59,16.10
2010,07,16,10,00,14.50
2010,07,16,10,01,16.10
2010,07,16,10,02,19.30
2010,07,16,10,03,17.70
2010,07,16,10,04,20.90
2010,07,16,10,05,20.90
2010,07,16,10,06,20.90
2010,07,16,10,07,19.30
2010,07,16,10,08,17.70
2010,07,16,10,09,22.50
2010,07,16,10,10,20.90
2010,07,16,10,11,17.70
2010,07,16,10,12,17.70
2010,07,16,10,13,16.10
2010,07,16,10,14,16.10
2010,07,16,10,15,16.10
2010,07,16,10,16,20.90
2010,07,16,10,17,16.10
2010,07,16,10,18,9.60
2010,07,16,10,19,17.70
2010,07,16,10,20,16.10
2010,07,16,10,21,19.30
2010,07,16,10,22,17.70
2010,07,16,10,23,16.10
2010,07,16,10,24,16.10
2010,07,16,10,25,17.70
2010,07,16,10,26,17.70
2010,07,16,10,27,16.10
2010,07,16,10,28,17.70
2010,07,16,10,29,16.10
2010,07,16,10,30,19.30
2010,07,16,10,31,17.70
2010,07,16,10,32,16.10
2010,07,16,10,33,19.30
2010,07,16,10,34,17.70
2010,07,16,10,35,16.10
2010,07,16,10,36,19.30
2010,07,16,10,37,17.70
2010,07,16,10,38,16.10
2010,07,16,10,39,17.70
2010,07,16,10,40,14.50
2010,07,16,10,41,20.90
2010,07,16,10,42,16.10
2010,07,16,10,43,17.70
2010,07,16,10,44,17.70
2010,07,16,10,45,19.30
2010,07,16,10,46,16.10
2010,07,16,10,47,16.10
2010,07,16,10,48,17.70
2010,07,16,10,49,17.70
2010,07,16,10,50,16.10
2010,07,16,10,51,19.30
2010,07,16,10,52,17.70
2010,07,16,10,53,20.90
2010,07,16,10,54,16.10
2010,07,16,10,55,14.50
2010,07,16,10,56,20.90
2010,07,16,10,57,17.70
2010,07,16,10,58,11.30
2010,07,16,10,59,17.70
2010,07,16,11,00,19.30
2010,07,16,11,01,20.90
2010,07,16,11,02,19.30
2010,07,16,11,03,16.10
2010,07,16,11,04,16.10
2010,07,16,11,05,16.10
2010,07,16,11,06,19.30
2010,07,16,11,07,11.30
2010,07,16,11,08,20.90
2010,07,16,11,09,19.30
2010,07,16,11,10,20.90
2010,07,16,11,11,24.20
2010,07,16,11,12,14.50
2010,07,16,11,13,22.50
2010,07,16,11,14,17.70
2010,07,16,11,15,19.30
2010,07,16,11,16,17.70
2010,07,16,11,17,16.10
2010,07,16,11,18,17.70
2010,07,16,11,19,16.10
2010,07,16,11,20,14.50
2010,07,16,11,21,16.10
2010,07,16,11,22,17.70
2010,07,16,11,23,16.10
2010,07,16,11,24,20.90
2010,07,16,11,25,16.10
2010,07,16,11,26,19.30
2010,07,16,11,27,17.70
2010,07,16,11,28,17.70
2010,07,16,11,29,17.70
2010,07,16,11,30,11.30
2010,07,16,11,31,16.10
2010,07,16,11,32,16.10
2010,07,16,11,33,17.70
2010,07,16,11,34,16.10
2010,07,16,11,35,11.30
2010,07,16,11,36,16.10
2010,07,16,11,37,19.30
2010,07,16,11,38,20.90
2010,07,16,11,39,17.70
2010,07,16,11,40,19.30
2010,07,16,11,41,17.70
2010,07,16,11,42,16.10
2010,07,16,11,43,20.90
2010,07,16,11,44,12.90
2010,07,16,11,45,16.10
2010,07,16,11,46,14.50
2010,07,16,11,47,16.10
2010,07,16,11,48,16.10
2010,07,16,11,49,16.10
2010,07,16,11,50,17.70
2010,07,16,11,51,22.50
2010,07,16,11,52,16.10
2010,07,16,11,53,20.90
2010,07,16,11,54,20.90
2010,07,16,11,55,17.70
2010,07,16,11,56,16.10
2010,07,16,11,57,17.70
2010,07,16,11,58,16.10
2010,07,16,11,59,6.40
2010,07,16,12,00,19.30
2010,07,16,12,01,16.10
2010,07,16,12,02,19.30
2010,07,16,12,03,12.90
2010,07,16,12,04,16.10
2010,07,16,12,05,24.20
2010,07,16,12,06,17.70
2010,07,16,12,07,19.30
2010,07,16,12,08,20.90
2010,07,16,12,09,9.60
2010,07,16,12,10,24.20
2010,07,16,12,11,17.70
2010,07,16,12,12,22.50
2010,07,16,12,13,20.90
2010,07,16,12,14,25.70
2010,07,16,12,15,14.50
2010,07,16,12,16,17.70
2010,07,16,12,17,14.50
2010,07,16,12,18,24.20
2010,07,16,12,19,20.90
2010,07,16,12,20,16.10
2010,07,16,12,21,16.10
2010,07,16,12,22,17.70
2010,07,16,12,23,14.50
2010,07,16,12,24,12.90
2010,07,16,12,25,17.70
2010,07,16,12,26,11.30
2010,07,16,12,27,19.30
2010,07,16,12,28,19.30
2010,07,16,12,29,16.10
2010,07,16,12,30,22.50
2010,07,16,12,31,19.30
2010,07,16,12,32,22.50
2010,07,16,12,33,19.30
2010,07,16,12,34,22.50
2010,07,16,12,35,24.20
2010,07,16,12,36,24.20
2010,07,16,12,37,22.50
2010,07,16,12,38,20.90
2010,07,16,12,39,22.50
2010,07,16,12,40,19.30
2010,07,16,12,41,19.30
2010,07,16,12,42,22.50
2010,07,16,12,43,20.90
2010,07,16,12,44,20.90
2010,07,16,12,45,20.90
2010,07,16,12,46,22.50
2010,07,16,12,47,27.40
2010,07,16,12,48,22.50
2010,07,16,12,49,20.90
2010,07,16,12,50,14.50
2010,07,16,12,51,14.50
2010,07,16,12,52,17.70
2010,07,16,12,53,22.50
2010,07,16,12,54,17.70
2010,07,16,12,55,25.70
2010,07,16,12,56,20.90
2010,07,16,12,57,16.10
2010,07,16,12,58,16.10
2010,07,16,12,59,20.90
2010,07,16,13,00,20.90
2010,07,16,13,01,19.30
2010,07,16,13,02,24.20
2010,07,16,13,03,25.70
2010,07,16,13,04,24.20
2010,07,16,13,05,25.70
2010,07,16,13,06,25.70
2010,07,16,13,07,24.20
2010,07,16,13,08,24.20
2010,07,16,13,09,24.20
2010,07,16,13,10,25.70
2010,07,16,13,11,24.20
2010,07,16,13,12,25.70
2010,07,16,13,13,25.70
2010,07,16,13,14,22.50
2010,07,16,13,15,22.50
2010,07,16,13,16,24.20
2010,07,16,13,17,19.30
2010,07,16,13,18,22.50
2010,07,16,13,19,22.50
2010,07,16,13,20,25.70
2010,07,16,13,21,22.50
2010,07,16,13,22,19.30
2010,07,16,13,23,20.90
2010,07,16,13,24,20.90
2010,07,16,13,25,22.50
2010,07,16,13,26,19.30
2010,07,16,13,27,20.90
2010,07,16,13,28,17.70
2010,07,16,13,29,19.30
2010,07,16,13,30,19.30
2010,07,16,13,31,22.50
2010,07,16,13,32,20.90
2010,07,16,13,33,20.90
2010,07,16,13,34,22.50
2010,07,16,13,35,20.90
2010,07,16,13,36,20.90
2010,07,16,13,37,19.30
2010,07,16,13,38,22.50
2010,07,16,13,39,20.90
2010,07,16,13,40,20.90
2010,07,16,13,41,22.50
2010,07,16,13,42,19.30
2010,07,16,13,43,22.50
2010,07,16,13,44,17.70
2010,07,16,13,45,17.70
2010,07,16,13,46,20.90
2010,07,16,13,47,16.10
2010,07,16,13,48,20.90
2010,07,16,13,49,19.30
2010,07,16,13,50,19.30
2010,07,16,13,51,17.70
2010,07,16,13,52,19.30
2010,07,16,13,53,19.30
2010,07,16,13,54,17.70
2010,07,16,13,55,17.70
2010,07,16,13,56,19.30
2010,07,16,13,57,20.90
2010,07,16,13,58,16.10
2010,07,16,13,59,17.70
2010,07,16,14,00,19.30
2010,07,16,14,01,17.70
2010,07,16,14,02,17.70
2010,07,16,14,03,17.70
2010,07,16,14,04,16.10
2010,07,16,14,05,19.30
2010,07,16,14,06,20.90
2010,07,16,14,07,16.10
2010,07,16,14,08,19.30
2010,07,16,14,09,19.30
2010,07,16,14,10,17.70
2010,07,16,14,11,17.70
2010,07,16,14,12,17.70
2010,07,16,14,13,12.90
2010,07,16,14,14,16.10
2010,07,16,14,15,17.70
2010,07,16,14,16,16.10
2010,07,16,14,17,17.70
2010,07,16,14,18,19.30
2010,07,16,14,19,16.10
2010,07,16,14,20,16.10
2010,07,16,14,21,16.10
2010,07,16,14,22,12.90
2010,07,16,14,23,14.50
2010,07,16,14,24,17.70
2010,07,16,14,25,19.30
2010,07,16,14,26,17.70
2010,07,16,14,27,14.50
2010,07,16,14,28,17.70
2010,07,16,14,29,14.50
2010,07,16,14,30,14.50
2010,07,16,14,31,17.70
2010,07,16,14,32,17.70
2010,07,16,14,33,17.70
2010,07,16,14,34,17.70
2010,07,16,14,35,14.50
2010,07,16,14,36,17.70
2010,07,16,14,37,14.50
2010,07,16,14,38,9.60
2010,07,16,14,39,11.30
2010,07,16,14,40,9.60
2010,07,16,14,41,16.10
2010,07,16,14,42,12.90
2010,07,16,14,43,16.10
2010,07,16,14,44,20.90
2010,07,16,14,45,16.10
2010,07,16,14,46,17.70
2010,07,16,14,47,12.90
2010,07,16,14,48,17.70
2010,07,16,14,49,14.50
2010,07,16,14,50,16.10
2010,07,16,14,51,17.70
2010,07,16,14,52,19.30
2010,07,16,14,53,16.10
2010,07,16,14,54,11.30
2010,07,16,14,55,11.30
2010,07,16,14,56,17.70
2010,07,16,14,57,19.30
2010,07,16,14,58,19.30
2010,07,16,14,59,17.70
2010,07,16,15,00,17.70
2010,07,16,15,01,17.70
2010,07,16,15,02,17.70
2010,07,16,15,03,16.10
2010,07,16,15,04,16.10
2010,07,16,15,05,11.30
2010,07,16,15,06,9.60
2010,07,16,15,07,8.10
2010,07,16,15,08,6.40
2010,07,16,15,09,9.60
2010,07,16,15,10,9.60
2010,07,16,15,11,9.60
2010,07,16,15,12,9.60
2010,07,16,15,13,8.10
2010,07,16,15,14,4.80
2010,07,16,15,15,11.30
2010,07,16,15,16,17.70
2010,07,16,15,17,12.90
2010,07,16,15,18,8.10
2010,07,16,15,19,17.70
2010,07,16,15,20,9.60
2010,07,16,15,21,11.30
2010,07,16,15,22,6.40
2010,07,16,15,23,6.40
2010,07,16,15,24,9.60
2010,07,16,15,25,9.60
2010,07,16,15,26,9.60
2010,07,16,15,27,11.30
2010,07,16,15,28,11.30
2010,07,16,15,29,14.50
2010,07,16,15,30,16.10
2010,07,16,15,31,9.60
2010,07,16,15,32,11.30
2010,07,16,15,33,11.30
2010,07,16,15,34,9.60
2010,07,16,15,35,11.30
2010,07,16,15,36,14.50
2010,07,16,15,37,14.50
2010,07,16,15,38,16.10
2010,07,16,15,39,11.30
2010,07,16,15,40,11.30
2010,07,16,15,41,8.10
2010,07,16,15,42,14.50
2010,07,16,15,43,9.60
2010,07,16,15,44,16.10
2010,07,16,15,45,16.10
2010,07,16,15,46,8.10
2010,07,16,15,47,9.60
2010,07,16,15,48,11.30
2010,07,16,15,49,11.30
2010,07,16,15,50,9.60
2010,07,16,15,51,8.10
2010,07,16,15,52,9.60
2010,07,16,15,53,9.60
2010,07,16,15,54,11.30
2010,07,16,15,55,11.30
2010,07,16,15,56,9.60
2010,07,16,15,57,9.60
2010,07,16,15,58,9.60
2010,07,16,15,59,8.10
2010,07,16,16,00,11.30
2010,07,16,16,01,9.60
2010,07,16,16,02,9.60
2010,07,16,16,03,8.10
2010,07,16,16,04,11.30
2010,07,16,16,05,9.60
2010,07,16,16,06,9.60
2010,07,16,16,07,4.80
2010,07,16,16,08,8.10
2010,07,16,16,09,9.60
2010,07,16,16,10,11.30
2010,07,16,16,11,8.10
2010,07,16,16,12,9.60
2010,07,16,16,13,11.30
2010,07,16,16,14,6.40
2010,07,16,16,15,8.10
2010,07,16,16,16,11.30
2010,07,16,16,17,11.30
2010,07,16,16,18,8.10
2010,07,16,16,19,8.10
2010,07,16,16,20,6.40
2010,07,16,16,21,11.30
2010,07,16,16,22,16.10
2010,07,16,16,23,11.30
2010,07,16,16,24,8.10
2010,07,16,16,25,6.40
2010,07,16,16,26,6.40
2010,07,16,16,27,9.60
2010,07,16,16,28,11.30
2010,07,16,16,29,12.90
2010,07,16,16,30,11.30
2010,07,16,16,31,12.90
2010,07,16,16,32,9.60
2010,07,16,16,33,11.30
2010,07,16,16,34,9.60
2010,07,16,16,35,9.60
2010,07,16,16,36,9.60
2010,07,16,16,37,14.50
2010,07,16,16,38,9.60
2010,07,16,16,39,11.30
2010,07,16,16,40,11.30
2010,07,16,16,41,16.10
2010,07,16,16,42,11.30
2010,07,16,16,43,11.30
2010,07,16,16,44,16.10
2010,07,16,16,45,9.60
2010,07,16,16,46,6.40
2010,07,16,16,47,9.60
2010,07,16,16,48,11.30
2010,07,16,16,49,14.50
2010,07,16,16,50,9.60
2010,07,16,16,51,16.10
2010,07,16,16,52,14.50
2010,07,16,16,53,16.10
2010,07,16,16,54,9.60
2010,07,16,16,55,16.10
2010,07,16,16,56,14.50
2010,07,16,16,57,12.90
2010,07,16,16,58,16.10
2010,07,16,16,59,16.10
2010,07,16,17,00,14.50
2010,07,16,17,01,16.10
2010,07,16,17,02,8.10
2010,07,16,17,03,9.60
2010,07,16,17,04,11.30
2010,07,16,17,05,16.10
2010,07,16,17,06,4.80
2010,07,16,17,07,6.40
2010,07,16,17,08,6.40
2010,07,16,17,09,16.10
2010,07,16,17,10,19.30
2010,07,16,17,11,17.70
2010,07,16,17,12,20.90
2010,07,16,17,13,20.90
2010,07,16,17,14,17.70
2010,07,16,17,15,14.50
2010,07,16,17,16,11.30
2010,07,16,17,17,8.10
2010,07,16,17,18,14.50
2010,07,16,17,19,9.60
2010,07,16,17,20,8.10
2010,07,16,17,21,8.10
2010,07,16,17,22,16.10
2010,07,16,17,23,14.50
2010,07,16,17,24,19.30
2010,07,16,17,25,8.10
2010,07,16,17,26,9.60
2010,07,16,17,27,9.60
2010,07,16,17,28,9.60
2010,07,16,17,29,8.10
2010,07,16,17,30,4.80
2010,07,16,17,31,14.50
2010,07,16,17,32,9.60
2010,07,16,17,33,14.50
2010,07,16,17,34,9.60
2010,07,16,17,35,6.40
2010,07,16,17,36,16.10
2010,07,16,17,37,17.70
2010,07,16,17,38,17.70
2010,07,16,17,39,19.30
2010,07,16,17,40,17.70
2010,07,16,17,41,20.90
2010,07,16,17,42,19.30
2010,07,16,17,43,16.10
2010,07,16,17,44,17.70
2010,07,16,17,45,9.60
2010,07,16,17,46,22.50
2010,07,16,17,47,17.70
2010,07,16,17,48,20.90
2010,07,16,17,49,20.90
2010,07,16,17,50,17.70
2010,07,16,17,51,17.70
2010,07,16,17,52,17.70
2010,07,16,17,53,14.50
2010,07,16,17,54,19.30
2010,07,16,17,55,16.10
2010,07,16,17,56,11.30
2010,07,16,17,57,14.50
2010,07,16,17,58,16.10
2010,07,16,17,59,17.70
2010,07,16,18,00,19.30
2010,07,16,18,01,14.50
2010,07,16,18,02,8.10
2010,07,16,18,03,8.10
2010,07,16,18,04,16.10
2010,07,16,18,05,9.60
2010,07,16,18,06,16.10
2010,07,16,18,07,19.30
2010,07,16,18,08,16.10
2010,07,16,18,09,11.30
2010,07,16,18,10,20.90
2010,07,16,18,11,17.70
2010,07,16,18,12,17.70
2010,07,16,18,13,12.90
2010,07,16,18,14,20.90
2010,07,16,18,15,11.30
2010,07,16,18,16,19.30
2010,07,16,18,17,12.90
2010,07,16,18,18,16.10
2010,07,16,18,19,14.50
2010,07,16,18,20,17.70
2010,07,16,18,21,9.60
2010,07,16,18,22,16.10
2010,07,16,18,23,16.10
2010,07,16,18,24,16.10
2010,07,16,18,25,16.10
2010,07,16,18,26,11.30
2010,07,16,18,27,8.10
2010,07,16,18,28,16.10
2010,07,16,18,29,9.60
2010,07,16,18,30,11.30
2010,07,16,18,31,14.50
2010,07,16,18,32,14.50
2010,07,16,18,33,19.30
2010,07,16,18,34,22.50
2010,07,16,18,35,16.10
2010,07,16,18,36,14.50
2010,07,16,18,37,17.70
2010,07,16,18,38,12.90
2010,07,16,18,39,11.30
2010,07,16,18,40,16.10
2010,07,16,18,41,11.30
2010,07,16,18,42,11.30
2010,07,16,18,43,11.30
2010,07,16,18,44,11.30
2010,07,16,18,45,9.60
2010,07,16,18,46,14.50
2010,07,16,18,47,14.50
2010,07,16,18,48,16.10
2010,07,16,18,49,8.10
2010,07,16,18,50,9.60
2010,07,16,18,51,11.30
2010,07,16,18,52,9.60
2010,07,16,18,53,8.10
2010,07,16,18,54,9.60
2010,07,16,18,55,8.10
2010,07,16,18,56,8.10
2010,07,16,18,57,6.40
2010,07,16,18,58,8.10
2010,07,16,18,59,6.40
2010,07,16,19,00,6.40
2010,07,16,19,01,8.10
2010,07,16,19,02,8.10
2010,07,16,19,03,8.10
2010,07,16,19,04,8.10
2010,07,16,19,05,8.10
2010,07,16,19,06,6.40
2010,07,16,19,07,8.10
2010,07,16,19,08,8.10
2010,07,16,19,09,8.10
2010,07,16,19,10,6.40
2010,07,16,19,11,6.40
2010,07,16,19,12,4.80
2010,07,16,19,13,6.40
2010,07,16,19,14,6.40
2010,07,16,19,15,6.40
2010,07,16,19,16,4.80
2010,07,16,19,17,6.40
2010,07,16,19,18,6.40
2010,07,16,19,19,6.40
2010,07,16,19,20,8.10
2010,07,16,19,21,11.30
2010,07,16,19,22,11.30
2010,07,16,19,23,9.60
2010,07,16,19,24,8.10
2010,07,16,19,25,16.10